�������l�o���
Date,Time,MP-1(��Sv/h),MP-2(��Sv/h),MP-3(��Sv/h),MP-4(��Sv/h),MP-5(��Sv/h),MP-6(��Sv/h),MP-7(��Sv/h),MP-8(��Sv/h),����,����(m/s),���J
2023/03/15,00:00,0.561,0.818,0.494,1.035,0.722,0.318,0.581,0.551,�k�k��,5.7,��
2023/03/15,00:10,0.560,0.818,0.495,1.036,0.724,0.318,0.580,0.550,�k��,5.6,��
2023/03/15,00:20,0.560,0.817,0.494,1.037,0.720,0.319,0.581,0.550,�k�k��,6.3,��
2023/03/15,00:30,0.559,0.820,0.494,1.035,0.721,0.319,0.579,0.550,�k��,5.9,��
2023/03/15,00:40,0.559,0.820,0.495,1.035,0.721,0.319,0.580,0.551,�k�k��,5.8,��
2023/03/15,00:50,0.559,0.818,0.493,1.037,0.721,0.319,0.579,0.552,�k��,6.2,��
2023/03/15,01:00,0.559,0.818,0.496,1.035,0.722,0.320,0.579,0.550,�k��,6.0,��
2023/03/15,01:10,0.561,0.817,0.495,1.035,0.722,0.319,0.580,0.550,�k��,5.9,��
2023/03/15,01:20,0.560,0.819,0.494,1.036,0.721,0.319,0.579,0.551,�k��,6.1,��
2023/03/15,01:30,0.561,0.818,0.493,1.036,0.722,0.318,0.578,0.553,�k��,6.6,��
2023/03/15,01:40,0.559,0.818,0.494,1.034,0.721,0.318,0.580,0.550,�k��,6.4,��
2023/03/15,01:50,0.559,0.818,0.495,1.037,0.721,0.318,0.578,0.549,�k��,6.3,��
2023/03/15,02:00,0.559,0.817,0.494,1.037,0.722,0.318,0.581,0.552,�k��,5.9,��
2023/03/15,02:10,0.558,0.818,0.496,1.036,0.721,0.319,0.580,0.550,�k��,5.7,��
2023/03/15,02:20,0.558,0.820,0.494,1.036,0.721,0.319,0.579,0.551,�k��,5.5,��
2023/03/15,02:30,0.560,0.818,0.495,1.035,0.722,0.321,0.580,0.550,�k��,5.9,��
2023/03/15,02:40,0.560,0.819,0.493,1.035,0.720,0.319,0.580,0.550,�k��,5.8,��
2023/03/15,02:50,0.559,0.818,0.495,1.036,0.723,0.320,0.579,0.551,�k��,5.9,��
2023/03/15,03:00,0.559,0.818,0.495,1.036,0.721,0.319,0.579,0.550,�k��,5.5,��
2023/03/15,03:10,0.558,0.817,0.494,1.034,0.721,0.319,0.580,0.553,�k��,5.8,��
2023/03/15,03:20,0.560,0.816,0.494,1.036,0.721,0.319,0.580,0.551,�k��,5.8,��
2023/03/15,03:30,0.559,0.817,0.494,1.036,0.722,0.318,0.578,0.551,�k��,6.0,��
2023/03/15,03:40,0.560,0.816,0.494,1.037,0.721,0.319,0.580,0.550,�k��,5.4,��
2023/03/15,03:50,0.558,0.818,0.493,1.037,0.722,0.318,0.579,0.550,�k��,5.2,��
2023/03/15,04:00,0.560,0.818,0.494,1.037,0.722,0.318,0.580,0.551,�k��,5.6,��
2023/03/15,04:10,0.558,0.816,0.496,1.036,0.720,0.317,0.580,0.550,�k��,5.3,��
2023/03/15,04:20,0.557,0.816,0.493,1.036,0.722,0.318,0.580,0.551,�k�k��,5.3,��
2023/03/15,04:30,0.558,0.816,0.495,1.034,0.720,0.319,0.579,0.551,�k�k��,5.3,��
2023/03/15,04:40,0.557,0.818,0.495,1.038,0.721,0.318,0.579,0.550,�k�k��,5.3,��
2023/03/15,04:50,0.559,0.818,0.494,1.036,0.722,0.319,0.578,0.551,�k��,5.5,��
2023/03/15,05:00,0.557,0.819,0.496,1.034,0.720,0.318,0.579,0.550,�k��,5.5,��
2023/03/15,05:10,0.559,0.817,0.495,1.034,0.721,0.318,0.579,0.550,�k��,5.4,��
2023/03/15,05:20,0.558,0.816,0.494,1.038,0.721,0.318,0.577,0.550,�k��,5.9,��
2023/03/15,05:30,0.559,0.819,0.495,1.035,0.721,0.316,0.579,0.551,�k��,5.9,��
2023/03/15,05:40,0.558,0.818,0.494,1.035,0.722,0.319,0.579,0.550,�k��,5.6,��
2023/03/15,05:50,0.556,0.817,0.492,1.036,0.721,0.318,0.579,0.550,�k�k��,6.2,��
2023/03/15,06:00,0.558,0.819,0.495,1.037,0.721,0.317,0.578,0.551,�k�k��,5.3,��
2023/03/15,06:10,0.558,0.817,0.496,1.037,0.721,0.318,0.580,0.549,�k��,5.5,��
2023/03/15,06:20,0.559,0.816,0.493,1.036,0.721,0.317,0.578,0.551,�k��,5.4,��
2023/03/15,06:30,0.557,0.818,0.495,1.036,0.719,0.317,0.577,0.551,�k��,5.7,��
2023/03/15,06:40,0.558,0.818,0.494,1.038,0.719,0.318,0.579,0.551,�k��,5.6,��
2023/03/15,06:50,0.559,0.817,0.495,1.035,0.721,0.319,0.578,0.551,�k��,5.8,��
2023/03/15,07:00,0.558,0.820,0.495,1.034,0.720,0.319,0.579,0.551,�k��,5.5,��
2023/03/15,07:10,0.558,0.818,0.494,1.036,0.722,0.319,0.579,0.550,�k��,5.7,��
2023/03/15,07:20,0.559,0.818,0.494,1.036,0.721,0.318,0.579,0.552,�k��,5.0,��
2023/03/15,07:30,0.558,0.817,0.493,1.036,0.720,0.318,0.579,0.551,�k��,4.9,��
2023/03/15,07:40,0.559,0.819,0.495,1.035,0.723,0.318,0.580,0.550,�k��,4.3,��
2023/03/15,07:50,0.560,0.819,0.494,1.035,0.720,0.318,0.581,0.551,�k��,4.7,��
2023/03/15,08:00,0.559,0.818,0.494,1.039,0.723,0.319,0.579,0.550,�k��,4.8,��
2023/03/15,08:10,0.559,0.820,0.495,1.039,0.721,0.319,0.580,0.550,�k�k��,4.2,��
2023/03/15,08:20,0.559,0.819,0.494,1.036,0.722,0.319,0.581,0.551,�k�k��,4.5,��
2023/03/15,08:30,0.560,0.817,0.495,1.038,0.721,0.317,0.580,0.551,�k�k��,3.9,��
2023/03/15,08:40,0.560,0.816,0.494,1.035,0.720,0.318,0.578,0.552,�k�k��,3.6,��
2023/03/15,08:50,0.560,0.817,0.495,1.036,0.723,0.319,0.579,0.550,�k�k��,3.3,��
2023/03/15,09:00,0.562,0.816,0.496,1.036,0.723,0.319,0.579,0.554,�k�k��,3.0,��
2023/03/15,09:10,0.560,0.817,0.495,1.038,0.721,0.319,0.579,0.553,�k,3.1,��
2023/03/15,09:20,0.561,0.817,0.495,1.036,0.721,0.319,0.579,0.553,�k�k��,3.5,��
2023/03/15,09:30,0.562,0.816,0.495,1.039,0.722,0.320,0.578,0.553,�k,3.5,��
2023/03/15,09:40,0.562,0.816,0.497,1.036,0.722,0.319,0.577,0.551,�k�k��,3.4,��
2023/03/15,09:50,0.562,0.816,0.496,1.038,0.724,0.319,0.579,0.550,�k�k��,3.3,��
2023/03/15,10:00,0.561,0.819,0.494,1.036,0.723,0.319,0.578,0.550,�k�k��,3.1,��
2023/03/15,10:10,0.561,0.816,0.494,1.035,0.724,0.319,0.577,0.551,�k�k��,3.9,��
2023/03/15,10:20,0.560,0.816,0.496,1.039,0.725,0.320,0.577,0.550,�k�k��,4.4,��
2023/03/15,10:30,0.561,0.816,0.496,1.039,0.722,0.318,0.579,0.549,�k�k��,4.9,��
2023/03/15,10:40,0.560,0.819,0.497,1.036,0.723,0.318,0.579,0.551,�k�k��,4.1,��
2023/03/15,10:50,0.561,0.816,0.495,1.038,0.724,0.320,0.579,0.550,�k�k��,5.1,��
2023/03/15,11:00,0.561,0.819,0.496,1.036,0.721,0.319,0.578,0.550,�k�k��,5.2,��
2023/03/15,11:10,0.561,0.821,0.497,1.038,0.724,0.318,0.580,0.549,�k�k��,5.6,��
2023/03/15,11:20,0.563,0.816,0.495,1.040,0.724,0.319,0.579,0.552,�k�k��,5.5,��
2023/03/15,11:30,0.562,0.817,0.496,1.037,0.726,0.318,0.578,0.550,�k�k��,5.2,��
2023/03/15,11:40,0.561,0.821,0.497,1.036,0.723,0.318,0.578,0.552,�k�k��,4.6,��
2023/03/15,11:50,0.561,0.821,0.496,1.038,0.726,0.318,0.579,0.552,�k�k��,4.4,��
2023/03/15,12:00,0.562,0.819,0.496,1.039,0.723,0.319,0.579,0.553,�k�k��,4.5,��
2023/03/15,12:10,0.562,0.821,0.497,1.036,0.724,0.320,0.579,0.552,�k�k��,3.5,��
2023/03/15,12:20,0.561,0.822,0.496,1.039,0.723,0.319,0.579,0.553,�k��,3.2,��
2023/03/15,12:30,0.563,0.820,0.497,1.041,0.723,0.320,0.580,0.551,�k��,3.8,��
2023/03/15,12:40,0.563,0.822,0.496,1.039,0.725,0.320,0.581,0.551,���k��,3.6,��
2023/03/15,12:50,0.561,0.821,0.498,1.036,0.725,0.321,0.579,0.551,���k��,2.9,��
2023/03/15,13:00,0.561,0.821,0.495,1.038,0.724,0.320,0.579,0.550,��,3.5,��
2023/03/15,13:10,0.562,0.820,0.496,1.040,0.726,0.321,0.580,0.550,���쓌,2.5,��
2023/03/15,13:20,0.562,0.821,0.498,1.040,0.725,0.320,0.580,0.551,���쓌,2.9,��
2023/03/15,13:30,0.561,0.823,0.497,1.037,0.726,0.320,0.582,0.551,���쓌,2.5,��
2023/03/15,13:40,0.563,0.820,0.494,1.039,0.726,0.321,0.579,0.551,���쓌,2.5,��
2023/03/15,13:50,0.563,0.821,0.497,1.039,0.726,0.322,0.580,0.550,�쓌,3.0,��
2023/03/15,14:00,0.564,0.822,0.496,1.038,0.722,0.321,0.580,0.549,���쓌,2.6,��
2023/03/15,14:10,0.564,0.820,0.496,1.039,0.725,0.320,0.580,0.550,���쓌,3.1,��
2023/03/15,14:20,0.563,0.823,0.497,1.038,0.726,0.321,0.580,0.550,��,3.0,��
2023/03/15,14:30,0.562,0.824,0.497,1.038,0.725,0.320,0.580,0.549,��,2.3,��
2023/03/15,14:40,0.562,0.822,0.497,1.038,0.727,0.320,0.580,0.552,��,3.4,��
2023/03/15,14:50,0.562,0.824,0.497,1.038,0.727,0.320,0.580,0.550,��,2.6,��
2023/03/15,15:00,0.563,0.823,0.496,1.039,0.723,0.319,0.579,0.551,��,2.6,��
2023/03/15,15:10,0.563,0.825,0.496,1.039,0.725,0.320,0.580,0.551,��,2.3,��
2023/03/15,15:20,0.562,0.823,0.496,1.040,0.727,0.320,0.580,0.550,���쓌,2.0,��
2023/03/15,15:30,0.563,0.824,0.496,1.039,0.727,0.320,0.581,0.550,��,1.9,��
2023/03/15,15:40,0.564,0.826,0.497,1.040,0.726,0.320,0.580,0.551,�쓌,1.8,��
2023/03/15,15:50,0.562,0.825,0.496,1.039,0.727,0.321,0.579,0.551,���쓌,2.0,��
2023/03/15,16:00,0.560,0.825,0.496,1.039,0.726,0.321,0.578,0.550,���쓌,1.9,��
2023/03/15,16:10,0.562,0.824,0.496,1.039,0.727,0.321,0.579,0.550,�쓌,1.8,��
2023/03/15,16:20,0.563,0.825,0.496,1.039,0.727,0.320,0.579,0.552,�쓌,2.2,��
2023/03/15,16:30,0.563,0.825,0.498,1.039,0.724,0.321,0.579,0.553,�쓌,1.8,��
2023/03/15,16:40,0.563,0.824,0.499,1.039,0.727,0.320,0.579,0.554,��쓌,2.0,��
2023/03/15,16:50,0.563,0.825,0.498,1.037,0.725,0.321,0.579,0.554,��쓌,2.6,��
2023/03/15,17:00,0.563,0.823,0.499,1.041,0.726,0.321,0.578,0.553,��쓌,3.1,��
2023/03/15,17:10,0.563,0.825,0.497,1.039,0.726,0.321,0.580,0.553,��쓌,2.5,��
2023/03/15,17:20,0.565,0.825,0.498,1.040,0.725,0.322,0.579,0.552,��쓌,3.3,��
2023/03/15,17:30,0.564,0.824,0.498,1.037,0.727,0.321,0.580,0.553,��쓌,2.5,��
2023/03/15,17:40,0.565,0.826,0.499,1.039,0.727,0.320,0.580,0.554,��쓌,2.6,��
2023/03/15,17:50,0.565,0.826,0.499,1.039,0.728,0.320,0.581,0.552,��,2.9,��
2023/03/15,18:00,0.565,0.825,0.500,1.038,0.730,0.322,0.581,0.553,��쓌,3.3,��
2023/03/15,18:10,0.564,0.826,0.499,1.038,0.728,0.321,0.582,0.551,��,3.2,��
2023/03/15,18:20,0.564,0.826,0.499,1.041,0.729,0.320,0.580,0.551,��,3.1,��
2023/03/15,18:30,0.567,0.826,0.499,1.039,0.728,0.321,0.582,0.552,��,2.3,��
2023/03/15,18:40,0.564,0.824,0.497,1.039,0.729,0.321,0.582,0.552,��,2.0,��
2023/03/15,18:50,0.565,0.825,0.499,1.038,0.729,0.321,0.581,0.552,��,1.5,��
2023/03/15,19:00,0.565,0.824,0.499,1.040,0.728,0.320,0.580,0.553,��,2.5,��
2023/03/15,19:10,0.564,0.824,0.499,1.038,0.730,0.320,0.581,0.551,��,3.0,��
2023/03/15,19:20,0.565,0.825,0.499,1.040,0.729,0.321,0.580,0.552,��,1.8,��
2023/03/15,19:30,0.565,0.825,0.498,1.038,0.728,0.322,0.581,0.550,��,3.1,��
2023/03/15,19:40,0.563,0.825,0.498,1.039,0.728,0.320,0.580,0.552,��,2.5,��
2023/03/15,19:50,0.563,0.825,0.498,1.039,0.728,0.321,0.581,0.552,��,1.9,��
2023/03/15,20:00,0.564,0.827,0.497,1.040,0.729,0.320,0.580,0.551,��쓌,1.8,��
2023/03/15,20:10,0.563,0.825,0.497,1.038,0.729,0.320,0.582,0.554,��,3.2,��
2023/03/15,20:20,0.562,0.825,0.498,1.038,0.728,0.321,0.579,0.551,��,3.7,��
2023/03/15,20:30,0.562,0.825,0.498,1.039,0.729,0.320,0.581,0.550,��,4.0,��
2023/03/15,20:40,0.564,0.824,0.497,1.038,0.728,0.320,0.580,0.551,��,4.4,��
2023/03/15,20:50,0.564,0.824,0.497,1.040,0.731,0.321,0.579,0.552,��,4.3,��
2023/03/15,21:00,0.563,0.824,0.498,1.038,0.730,0.321,0.580,0.552,��,5.0,��
2023/03/15,21:10,0.564,0.824,0.498,1.037,0.727,0.320,0.578,0.552,��,4.5,��
2023/03/15,21:20,0.562,0.823,0.496,1.040,0.731,0.321,0.581,0.552,��,4.9,��
2023/03/15,21:30,0.565,0.824,0.498,1.039,0.730,0.321,0.579,0.552,��,5.0,��
2023/03/15,21:40,0.564,0.824,0.498,1.038,0.728,0.322,0.579,0.552,��,5.8,��
2023/03/15,21:50,0.563,0.826,0.498,1.039,0.727,0.320,0.579,0.552,��,6.6,��
2023/03/15,22:00,0.564,0.824,0.497,1.037,0.727,0.322,0.580,0.553,��쓌,5.8,��
2023/03/15,22:10,0.563,0.825,0.497,1.039,0.727,0.321,0.580,0.552,��,5.0,��
2023/03/15,22:20,0.563,0.824,0.499,1.040,0.729,0.320,0.582,0.551,��,6.2,��
2023/03/15,22:30,0.564,0.825,0.499,1.039,0.728,0.320,0.580,0.552,��,6.1,��
2023/03/15,22:40,0.564,0.824,0.498,1.039,0.727,0.321,0.580,0.551,��,6.4,��
2023/03/15,22:50,0.563,0.824,0.497,1.040,0.729,0.320,0.580,0.552,��,6.1,��
2023/03/15,23:00,0.563,0.823,0.498,1.040,0.729,0.321,0.580,0.552,��,6.4,��
2023/03/15,23:10,0.563,0.826,0.498,1.041,0.729,0.321,0.581,0.553,��,6.7,��
2023/03/15,23:20,0.563,0.823,0.499,1.039,0.727,0.321,0.579,0.552,��,6.8,��
2023/03/15,23:30,0.562,0.825,0.499,1.037,0.730,0.322,0.581,0.552,��,6.4,��
2023/03/15,23:40,0.565,0.825,0.500,1.039,0.728,0.320,0.580,0.552,��,5.8,��
2023/03/15,23:50,0.563,0.823,0.500,1.038,0.728,0.320,0.579,0.551,��,5.5,��
